• MPC Preparation (Info)

  • MPEC 2014-C39 : 2014 CH13

    The following Minor Planet Electronic Circular may be linked-to from your own Web pages, but must not otherwise be redistributed electronically.

    A form allowing access to any MPEC is at the bottom of this page.


    Read MPEC 2014-C38 Read MPEC 2014-C40


    M.P.E.C. 2014-C39                                Issued 2014 Feb. 11, 22:40 UT
    
         The Minor Planet Electronic Circulars contain information on unusual
             minor planets and routine data on comets.  They are published
       on behalf of Commission 20 of the International Astronomical Union by the
              Minor Planet Center, Smithsonian Astrophysical Observatory,
                              Cambridge, MA 02138, U.S.A.
    
                 Prepared using the Tamkin Foundation Computer Network
    
                                  MPC@CFA.HARVARD.EDU
                URL https://www.minorplanetcenter.net/    ISSN 1523-6714
    
                                       2014 CH13
    
    Observations:
         K14C13H* C2014 02 10.36764 09 54 16.15 +31 08 58.1          21.2 VqEC039G96
         K14C13H  C2014 02 10.37488 09 54 15.62 +31 09 19.6          21.2 VqEC039G96
         K14C13H  C2014 02 10.37997 09 54 15.18 +31 09 35.5          20.2 VqEC039G96
         K14C13H  C2014 02 10.38506 09 54 14.71 +31 09 51.7          20.5 VqEC039G96
         K14C13H  C2014 02 10.40667 09 54 12.99 +31 10 58.0          21.0 VqEC039G96
         K14C13H  C2014 02 10.40842 09 54 12.83 +31 11 03.5          20.7 VqEC039G96
         K14C13H  C2014 02 10.41018 09 54 12.66 +31 11 08.6          20.1 VqEC039G96
         K14C13H  C2014 02 10.41193 09 54 12.52 +31 11 14.3          21.2 VqEC039G96
         K14C13H  C2014 02 10.41371 09 54 12.41 +31 11 19.5          20.7 VqEC039G96
         K14C13H KC2014 02 10.95440 09 53 47.41 +31 39 36.5                qEC039J95
         K14C13H KC2014 02 10.97700 09 53 45.62 +31 40 48.9          20.7 RqEC039J95
         K14C13H  C2014 02 11.32733 09 53 25.19 +32 00 00.7          20.7 VqEC039G96
         K14C13H  C2014 02 11.32818 09 53 25.12 +32 00 03.3          20.8 VqEC039G96
         K14C13H  C2014 02 11.32902 09 53 25.03 +32 00 06.6          20.5 VqEC039G96
         K14C13H  C2014 02 11.32987 09 53 24.93 +32 00 09.5          21.6 VqEC039G96
         K14C13H  C2014 02 11.33072 09 53 24.87 +32 00 12.1          20.8 VqEC039G96
    
    Observer details:
    G96 Mt. Lemmon Survey.  Observer R. E. Hill.  Measurers E. J. Christensen,
        A. R. Gibbs, A. D. Grauer, R. E. Hill, J. A. Johnson, R. A. Kowalski,
        S. M. Larson, F. C. Shelly.  1.5-m reflector + CCD.
    J95 Great Shefford.  Observer P. Birtwhistle.  0.40-m f/6.0 Schmidt-Cassegrain
        + CCD.
    
    Orbital elements:
    2014 CH13                                                Earth MOID = 0.0123 AU
    Epoch 2013 Nov. 4.0 TT = JDT 2456600.5                  MPC
    M 212.76249              (2000.0)            P               Q
    n   0.80724537     Peri.  115.69299     -0.68778103     +0.72350558
    a   1.1423495      Node   110.71905     -0.68662500     -0.62195208
    e   0.1539527      Incl.    3.62487     -0.23559150     -0.29952508
    P   1.22           H   24.4           G   0.15           U   9
    Residuals in seconds of arc
    140210 G96  0.0   0.5+    140210 G96  0.4-  0.2-    140211 G96  0.4+  0.4-
    140210 G96  0.8+  0.4-    140210 G96  0.5-  0.2+    140211 G96  0.2+  0.2+
    140210 G96  0.6+  0.3-    140210 G96  0.1-  0.0     140211 G96  0.1-  0.4+
    140210 G96  0.1-  0.2+    140210 J95  0.3+  0.6+    140211 G96  0.1+  0.2+
    140210 G96  0.2+  0.0     140210 J95  0.6-  0.6-
    140210 G96  0.1-  0.1+    140211 G96  0.4+  0.2-
    
    Ephemeris:
    2014 CH13                a,e,i = 1.14, 0.15, 4                   q = 0.9665
    Date    TT    R. A. (2000) Decl.     Delta      r     Elong.  Phase     V
    2014 01 12    09 54 46.5 +15 08 36   0.2218  1.1736   145.8    28.1    22.7
    ...
    2014 01 27    10 00 32.2 +20 56 05   0.1605  1.1370   160.1    17.1    21.6
    ...
    2014 02 04    09 58 36.4 +26 01 27   0.1352  1.1170   165.0    13.2    21.1
    ...
    2014 02 10    09 54 36.3 +30 49 43   0.1199  1.1019   163.0    15.2    20.8
    2014 02 11    09 53 43.3 +31 42 27   0.1176  1.0994   162.1    16.0    20.8
    2014 02 12    09 52 46.6 +32 36 26   0.1154  1.0969   161.1    17.0    20.8
    ...
    2014 02 18    09 45 44.4 +38 23 59   0.1040  1.0820   153.1    24.4    20.8
    ...
    2014 02 26    09 32 28.2 +46 51 53   0.09291 1.0627   139.7    37.0    20.9
    ...
    2014 03 13    08 54 04.4 +62 58 50   0.08097 1.0288   113.6    62.3    21.2
    
    A. U. Tomatic                (C) Copyright 2014 MPC           M.P.E.C. 2014-C39
    

    Read MPEC 2014-C38 Read MPEC 2014-C40


    MPEC number:

    Enter an MPEC number in one of the following forms:

    • 1997-B01 (the full form)
    • J97B01 (the packed version of the full form)
    • B01 (the abbreviated form)